Date String (YYYY-MM-DD hh:mm:ss) UTC,Instrument flags,absolute air pressure of the measurement (hPa),sample flow rate (lpm),inlet stack bypass flow (lpm),air temperature of the measurement (°C),ambient temperature measured by the external sensor (°C),aerosol sample conditioner tube jacket temperature (°C),OPC LED temperature (°C),internal box temperature (°C),relative humidity of the measurement (%),span deviation,mass concentration of particles derived from Lorenz-Mie calculation of OPC scattering (μg/m³),mass concentration of particles derived from Lorenz-Mie calculation of OPC scattering (μg/m³),mass concentration of particles derived from Lorenz-Mie calculation of OPC scattering (μg/m³)
DateTimeUTC,F1_M11,P_M11,Q1_M11,Q2_M11,T1_M11,T2_M11,T3_M11,T4_M11,T5_M11,U1_M11,ZSPAN_M11,X2_M11,X0_M11,X1_M11
2023-11-11 08:00:00,SystemResetWarning,0831.1,5.00,000.00,023.3,022.2,000.0,031.7,024.7,7.2,0000.0,0003.28,0005.62,0002.64
2023-11-11 08:01:00,SystemResetWarning,0831.1,5.00,000.00,023.3,022.2,000.0,031.7,024.7,7.5,0000.0,0003.26,0005.65,0002.61
2023-11-11 08:02:00,SystemResetWarning,0831.1,5.01,000.00,023.3,022.2,000.0,031.7,024.7,7.3,0000.0,0003.25,0005.56,0002.58
2023-11-11 08:03:00,SystemResetWarning,0831.1,5.01,000.00,023.3,022.1,000.0,031.7,024.7,7.2,0000.0,0003.22,0005.45,0002.54
2023-11-11 08:04:00,SystemResetWarning,0831.1,5.00,000.00,023.3,022.1,000.0,031.7,024.6,7.1,0000.0,0003.19,0005.43,0002.49
2023-11-11 08:05:00,SystemResetWarning,0831.1,5.00,000.00,023.3,022.1,000.0,031.7,024.6,7.1,0000.0,0003.19,0005.50,0002.46
2023-11-11 08:06:00,SystemResetWarning,0831.0,4.99,000.00,023.3,022.1,000.0,031.7,024.6,7.2,0000.0,0003.17,0005.37,0002.44
2023-11-11 08:07:00,SystemResetWarning,0830.9,4.99,000.00,023.3,022.1,000.0,031.7,024.6,7.3,0000.0,0003.18,0005.39,0002.41
2023-11-11 08:08:00,SystemResetWarning,0830.9,5.00,000.00,023.3,022.1,000.0,031.7,024.7,7.4,0000.0,0003.16,0005.22,0002.40
2023-11-11 08:09:00,SystemResetWarning,0830.9,5.01,000.00,023.3,022.1,000.0,031.7,024.6,7.5,0000.0,0003.14,0005.18,0002.36
2023-11-11 08:10:00,SystemResetWarning,0830.9,5.01,000.00,023.3,022.1,000.0,031.7,024.6,7.3,0000.0,0003.15,0005.38,0002.34
2023-11-11 08:11:00,SystemResetWarning,0830.9,5.00,000.00,023.3,022.1,000.0,031.7,024.6,7.2,0000.0,0003.15,0006.72,0002.33
2023-11-11 08:12:00,SystemResetWarning,0830.9,4.99,000.00,023.2,022.1,000.0,031.7,024.6,7.2,0000.0,0003.13,0006.76,0002.31
2023-11-11 08:13:00,SystemResetWarning,0830.9,4.99,000.00,023.2,022.1,000.0,031.7,024.6,7.2,0000.0,0003.12,0006.75,0002.29
2023-11-11 08:14:00,SystemResetWarning,0830.8,5.00,000.00,023.2,022.1,000.0,031.6,024.6,7.3,0000.0,0003.10,0006.62,0002.29
2023-11-11 08:15:00,SystemResetWarning,0830.8,5.01,000.00,023.2,022.1,000.0,031.6,024.6,7.2,0000.0,0003.09,0006.67,0002.29
2023-11-11 08:16:00,SystemResetWarning,0830.7,5.01,000.00,023.2,022.1,000.0,031.6,024.6,7.2,0000.0,0003.09,0007.00,0002.29
2023-11-11 08:17:00,SystemResetWarning,0830.7,5.01,000.00,023.2,022.1,000.0,031.6,024.6,7.2,0000.0,0003.07,0006.93,0002.28
2023-11-11 08:18:00,SystemResetWarning,0830.7,4.99,000.00,023.2,022.1,000.0,031.6,024.6,7.1,0000.0,0003.11,0007.07,0002.29
2023-11-11 08:19:00,SystemResetWarning,0830.8,5.00,000.00,023.2,022.1,000.0,031.6,024.6,7.6,0000.0,0003.12,0007.15,0002.29
2023-11-11 08:20:00,SystemResetWarning,0830.8,5.00,000.00,023.2,022.1,000.0,031.6,024.6,7.4,0000.0,0003.15,0007.31,0002.31
2023-11-11 08:21:00,SystemResetWarning,0830.8,5.00,000.00,023.2,022.1,000.0,031.6,024.6,7.4,0000.0,0003.12,0007.09,0002.31
2023-11-11 08:22:00,SystemResetWarning,0830.9,5.00,000.00,023.2,022.1,000.0,031.6,024.6,7.5,0000.0,0003.10,0005.76,0002.28
2023-11-11 08:23:00,SystemResetWarning,0830.9,5.00,000.00,023.2,022.1,000.0,031.6,024.7,7.6,0000.0,0003.11,0005.92,0002.28
2023-11-11 08:24:00,SystemResetWarning,0830.9,5.00,000.00,023.2,022.1,000.0,031.6,024.6,7.6,0000.0,0003.13,0006.39,0002.29
2023-11-11 08:25:00,SystemResetWarning,0830.9,5.00,000.00,023.2,022.1,000.0,031.6,024.6,7.6,0000.0,0003.16,0006.47,0002.32
2023-11-11 08:26:00,SystemResetWarning,0830.9,4.99,000.00,023.2,022.1,000.0,031.6,024.6,7.7,0000.0,0003.18,0006.50,0002.33
2023-11-11 08:27:00,SystemResetWarning,0830.9,5.00,000.00,023.2,022.1,000.0,031.6,024.6,7.7,0000.0,0003.19,0006.18,0002.36
2023-11-11 08:28:00,SystemResetWarning,0830.9,5.00,000.00,023.2,022.1,000.0,031.6,024.6,7.7,0000.0,0003.20,0006.25,0002.37
2023-11-11 08:29:00,SystemResetWarning,0830.9,5.00,000.00,023.2,022.1,000.0,031.6,024.6,7.6,0000.0,0003.19,0006.23,0002.37
2023-11-11 08:30:00,SystemResetWarning,0830.8,5.00,000.00,023.2,022.1,000.0,031.6,024.6,7.6,0000.0,0003.19,0006.20,0002.38
2023-11-11 08:31:00,SystemResetWarning,0830.8,5.01,000.00,023.2,022.1,000.0,031.6,024.6,7.5,0000.0,0003.18,0007.25,0002.38
2023-11-11 08:32:00,SystemResetWarning,0830.7,5.00,000.00,023.2,022.1,000.0,031.6,024.6,7.5,0000.0,0003.18,0007.23,0002.38
2023-11-11 08:33:00,SystemResetWarning,0830.7,5.01,000.00,023.2,022.1,000.0,031.6,024.6,7.6,0000.0,0003.19,0007.30,0002.39
2023-11-11 08:34:00,SystemResetWarning,0830.8,5.01,000.00,023.2,022.1,000.0,031.6,024.5,7.6,0000.0,0003.18,0007.57,0002.39
2023-11-11 08:35:00,SystemResetWarning,0830.8,5.00,000.00,023.2,022.1,000.0,031.6,024.5,7.5,0000.0,0003.14,0007.41,0002.39
2023-11-11 08:36:00,SystemResetWarning,0830.9,5.00,000.00,023.2,022.1,000.0,031.6,024.6,7.5,0000.0,0003.12,0007.46,0002.38
2023-11-11 08:37:00,SystemResetWarning,0830.9,5.00,000.00,023.2,022.1,000.0,031.6,024.6,7.4,0000.0,0003.12,0007.48,0002.38
2023-11-11 08:38:00,SystemResetWarning,0830.9,4.99,000.00,023.2,022.1,000.0,031.6,024.5,7.4,0000.0,0003.14,0007.90,0002.37
2023-11-11 08:39:00,SystemResetWarning,0831.0,4.99,000.00,023.1,022.1,000.0,031.6,024.5,7.4,0000.0,0003.16,0008.11,0002.36
2023-11-11 08:40:00,SystemResetWarning,0831.1,5.00,000.00,023.1,022.1,000.0,031.6,024.6,7.4,0000.0,0003.13,0008.12,0002.34
2023-11-11 08:41:00,SystemResetWarning,0831.1,5.00,000.00,023.1,022.0,000.0,031.6,024.5,7.8,0000.0,0003.12,0008.38,0002.34
2023-11-11 08:42:00,SystemResetWarning,0831.1,5.01,000.00,023.1,022.0,000.0,031.5,024.5,8.0,0000.0,0003.12,0007.80,0002.33
2023-11-11 08:43:00,SystemResetWarning,0831.1,4.99,000.00,023.1,022.0,000.0,031.5,024.5,7.7,0000.0,0003.14,0007.94,0002.32
2023-11-11 08:44:00,SystemResetWarning,0831.0,4.99,000.00,023.1,022.0,000.0,031.5,024.5,7.8,0000.0,0003.19,0008.15,0002.35
2023-11-11 08:45:00,SystemResetWarning,0830.9,5.01,000.00,023.1,022.0,000.0,031.5,024.5,7.7,0000.0,0003.20,0007.96,0002.36
2023-11-11 08:46:00,SystemResetWarning,0830.9,5.01,000.00,023.1,022.0,000.0,031.5,024.5,7.7,0000.0,0003.23,0007.91,0002.37
2023-11-11 08:47:00,SystemResetWarning,0830.9,4.99,000.00,023.1,022.0,000.0,031.5,024.5,7.9,0000.0,0003.23,0007.81,0002.39
2023-11-11 08:48:00,SystemResetWarning,0830.9,4.99,000.00,023.1,022.0,000.0,031.5,024.5,7.9,0000.0,0003.25,0007.82,0002.41
2023-11-11 08:49:00,SystemResetWarning,0830.9,5.01,000.00,023.1,022.0,000.0,031.5,024.6,8.0,0000.0,0003.23,0007.34,0002.41
2023-11-11 08:50:00,SystemResetWarning,0830.8,5.01,000.00,023.1,022.0,000.0,031.5,024.5,8.0,0000.0,0003.23,0007.01,0002.42
2023-11-11 08:51:00,SystemResetWarning,0830.9,5.00,000.00,023.1,022.0,000.0,031.5,024.5,7.9,0000.0,0003.28,0007.04,0002.43
2023-11-11 08:52:00,SystemResetWarning,0830.9,4.99,000.00,023.1,022.0,000.0,031.5,024.5,7.9,0000.0,0003.28,0006.51,0002.43
2023-11-11 08:53:00,SystemResetWarning,0830.9,4.99,000.00,023.1,022.0,000.0,031.5,024.5,8.0,0000.0,0003.31,0006.54,0002.45
2023-11-11 08:54:00,SystemResetWarning,0830.9,5.00,000.00,023.1,022.0,000.0,031.5,024.5,7.8,0000.0,0003.29,0006.16,0002.47
2023-11-11 08:55:00,SystemResetWarning,0830.9,5.01,000.00,023.1,022.0,000.0,031.5,024.5,7.7,0000.0,0003.23,0005.71,0002.47
2023-11-11 08:56:00,SystemResetWarning,0830.9,5.01,000.00,023.1,022.0,000.0,031.5,024.5,7.7,0000.0,0003.25,0005.38,0002.47
2023-11-11 08:57:00,SystemResetWarning,0830.9,5.01,000.00,023.1,022.0,000.0,031.5,024.4,7.5,0000.0,0003.24,0005.04,0002.46
2023-11-11 08:58:00,SystemResetWarning,0830.9,5.00,000.00,023.1,022.0,000.0,031.5,024.4,7.9,0000.0,0003.26,0005.12,0002.46
2023-11-11 08:59:00,SystemResetWarning,0830.9,4.99,000.00,023.1,022.0,000.0,031.5,024.4,7.8,0000.0,0003.27,0005.44,0002.46
